Time,TemperatureF,DewpointF,PressureIn,WindDirection,WindDirectionDegrees,WindSpeedMPH,WindSpeedGustMPH,Humidity,HourlyPrecipIn,Conditions,Clouds,dailyrainin,SoftwareType,DateUTC
2013-09-06 00:05:00,78.5,75.3,30.03,WSW,250,0.0,0.0,90,0.00,,,0.00,Wunderground v.1.15,2013-09-06 04:05:00,
2013-09-06 00:10:00,78.5,75.3,30.02,WSW,250,0.0,0.0,90,0.00,,,0.00,Wunderground v.1.15,2013-09-06 04:10:00,
2013-09-06 00:15:00,78.5,75.3,30.02,WSW,250,0.0,0.0,90,0.00,,,0.00,Wunderground v.1.15,2013-09-06 04:15:00,
2013-09-06 00:20:00,78.5,75.3,30.03,WSW,250,0.0,0.0,90,0.00,,,0.00,Wunderground v.1.15,2013-09-06 04:20:00,
2013-09-06 00:30:00,78.5,75.3,30.03,WSW,250,0.0,0.0,90,0.00,,,0.00,Wunderground v.1.15,2013-09-06 04:30:00,
2013-09-06 00:35:00,78.5,75.3,30.03,WSW,250,0.0,0.0,90,0.00,,,0.00,Wunderground v.1.15,2013-09-06 04:35:00,
2013-09-06 00:40:00,78.4,75.2,30.03,WSW,250,0.0,0.0,90,0.00,,,0.00,Wunderground v.1.15,2013-09-06 04:40:00,
2013-09-06 00:50:00,78.2,75.0,30.03,WSW,250,0.0,0.0,90,0.00,,,0.00,Wunderground v.1.15,2013-09-06 04:50:00,
2013-09-06 01:00:00,78.1,74.9,30.03,WSW,250,0.0,0.0,90,0.00,,,0.00,Wunderground v.1.15,2013-09-06 05:00:00,
2013-09-06 01:05:00,78.0,74.8,30.03,WSW,250,0.0,0.0,90,0.00,,,0.00,Wunderground v.1.15,2013-09-06 05:05:00,
2013-09-06 01:15:00,77.8,74.6,30.03,WSW,250,0.0,0.0,90,0.00,,,0.00,Wunderground v.1.15,2013-09-06 05:15:00,
2013-09-06 01:20:00,77.8,74.6,30.03,WSW,250,0.0,0.0,90,0.00,,,0.00,Wunderground v.1.15,2013-09-06 05:20:00,
2013-09-06 01:25:00,77.8,74.6,30.03,WSW,250,0.0,0.0,90,0.00,,,0.00,Wunderground v.1.15,2013-09-06 05:25:00,
2013-09-06 01:30:00,77.7,74.9,30.03,WSW,250,0.0,0.0,91,0.00,,,0.00,Wunderground v.1.15,2013-09-06 05:30:00,
2013-09-06 01:35:00,77.6,74.8,30.03,WSW,250,0.0,0.0,91,0.00,,,0.00,Wunderground v.1.15,2013-09-06 05:35:00,
2013-09-06 01:40:00,77.6,74.8,30.03,WSW,250,0.0,0.0,91,0.00,,,0.00,Wunderground v.1.15,2013-09-06 05:40:00,
2013-09-06 01:50:00,77.6,74.8,30.02,WSW,250,0.0,0.0,91,0.00,,,0.00,Wunderground v.1.15,2013-09-06 05:50:00,
2013-09-06 02:00:00,77.5,74.7,30.02,WSW,250,0.0,0.0,91,0.00,,,0.00,Wunderground v.1.15,2013-09-06 06:00:00,
2013-09-06 02:05:00,77.4,74.6,30.02,WSW,250,0.0,0.0,91,0.00,,,0.00,Wunderground v.1.15,2013-09-06 06:05:00,
2013-09-06 02:15:00,77.4,74.6,30.01,WSW,250,0.0,0.0,91,0.00,,,0.00,Wunderground v.1.15,2013-09-06 06:15:00,
2013-09-06 02:20:00,77.4,74.6,30.01,WSW,250,0.0,0.0,91,0.00,,,0.00,Wunderground v.1.15,2013-09-06 06:20:00,
2013-09-06 02:25:00,77.4,74.6,30.01,WSW,250,0.0,0.0,91,0.00,,,0.00,Wunderground v.1.15,2013-09-06 06:25:00,
2013-09-06 02:30:00,77.4,74.6,30.01,WSW,250,0.0,0.0,91,0.00,,,0.00,Wunderground v.1.15,2013-09-06 06:30:00,
2013-09-06 02:35:00,77.4,74.6,30.01,WSW,250,0.0,0.0,91,0.00,,,0.00,Wunderground v.1.15,2013-09-06 06:35:00,
2013-09-06 02:40:00,77.4,74.6,30.01,WSW,250,0.0,0.0,91,0.00,,,0.00,Wunderground v.1.15,2013-09-06 06:40:00,
2013-09-06 02:45:00,77.4,74.6,30.01,WSW,250,0.0,0.0,91,0.00,,,0.00,Wunderground v.1.15,2013-09-06 06:45:00,
2013-09-06 02:50:00,77.4,74.6,30.01,WSW,250,0.0,0.0,91,0.00,,,0.00,Wunderground v.1.15,2013-09-06 06:50:00,
2013-09-06 02:55:00,77.4,74.6,30.01,WSW,250,0.0,0.0,91,0.00,,,0.00,Wunderground v.1.15,2013-09-06 06:55:00,
2013-09-06 03:00:00,77.4,74.6,30.01,WSW,250,0.0,0.0,91,0.00,,,0.00,Wunderground v.1.15,2013-09-06 07:00:00,
2013-09-06 03:05:00,77.3,74.5,30.01,WSW,250,0.0,0.0,91,0.00,,,0.00,Wunderground v.1.15,2013-09-06 07:05:00,
2013-09-06 03:10:00,77.3,74.5,30.00,WSW,250,0.0,0.0,91,0.00,,,0.00,Wunderground v.1.15,2013-09-06 07:10:00,
2013-09-06 03:20:00,77.3,74.5,30.01,WSW,250,0.0,0.0,91,0.00,,,0.00,Wunderground v.1.15,2013-09-06 07:20:00,
2013-09-06 03:25:00,77.2,74.4,30.01,WSW,250,0.0,0.0,91,0.00,,,0.00,Wunderground v.1.15,2013-09-06 07:25:00,
2013-09-06 03:30:00,77.2,74.4,30.00,WSW,250,0.0,0.0,91,0.00,,,0.00,Wunderground v.1.15,2013-09-06 07:30:00,
2013-09-06 03:35:00,77.2,74.4,30.00,WSW,250,0.0,0.0,91,0.00,,,0.00,Wunderground v.1.15,2013-09-06 07:35:00,
2013-09-06 03:40:00,77.2,74.4,30.00,WSW,250,0.0,0.0,91,0.00,,,0.00,Wunderground v.1.15,2013-09-06 07:40:00,
2013-09-06 03:45:00,77.2,74.4,30.00,WSW,250,0.0,0.0,91,0.00,,,0.00,Wunderground v.1.15,2013-09-06 07:45:00,
2013-09-06 03:50:00,77.2,74.7,30.00,WSW,250,0.0,0.0,92,0.00,,,0.00,Wunderground v.1.15,2013-09-06 07:50:00,
2013-09-06 03:55:00,77.3,74.8,30.00,WSW,250,0.0,0.0,92,0.00,,,0.00,Wunderground v.1.15,2013-09-06 07:55:00,
2013-09-06 04:00:00,77.3,74.8,30.00,WSW,250,0.0,0.0,92,0.00,,,0.00,Wunderground v.1.15,2013-09-06 08:00:00,
2013-09-06 04:05:00,77.4,74.9,30.00,WSW,250,0.0,0.0,92,0.00,,,0.00,Wunderground v.1.15,2013-09-06 08:05:00,
2013-09-06 04:10:00,77.4,74.9,30.00,WSW,250,0.0,0.0,92,0.00,,,0.00,Wunderground v.1.15,2013-09-06 08:10:00,
2013-09-06 04:15:00,77.5,75.0,30.00,WSW,250,0.0,0.0,92,0.00,,,0.00,Wunderground v.1.15,2013-09-06 08:15:00,
2013-09-06 04:20:00,77.5,75.0,30.00,WSW,250,0.0,0.0,92,0.00,,,0.00,Wunderground v.1.15,2013-09-06 08:20:00,
2013-09-06 04:25:00,77.4,74.9,30.00,WSW,250,0.0,0.0,92,0.00,,,0.00,Wunderground v.1.15,2013-09-06 08:25:00,
2013-09-06 04:30:00,77.4,74.9,30.00,WSW,250,0.0,0.0,92,0.00,,,0.00,Wunderground v.1.15,2013-09-06 08:30:00,
2013-09-06 04:35:00,77.4,74.9,30.00,WSW,250,0.0,0.0,92,0.00,,,0.00,Wunderground v.1.15,2013-09-06 08:35:00,
2013-09-06 04:40:00,77.4,74.9,30.00,WSW,250,0.0,0.0,92,0.00,,,0.00,Wunderground v.1.15,2013-09-06 08:40:00,
2013-09-06 04:45:00,77.3,74.8,30.00,WSW,250,0.0,0.0,92,0.00,,,0.00,Wunderground v.1.15,2013-09-06 08:45:00,
2013-09-06 04:50:00,77.4,74.9,30.00,WSW,250,0.0,0.0,92,0.00,,,0.00,Wunderground v.1.15,2013-09-06 08:50:00,
2013-09-06 04:55:00,77.4,74.9,30.00,WSW,250,0.0,0.0,92,0.00,,,0.00,Wunderground v.1.15,2013-09-06 08:55:00,
2013-09-06 05:00:00,77.4,74.9,30.00,WSW,250,0.0,0.0,92,0.00,,,0.00,Wunderground v.1.15,2013-09-06 09:00:00,
2013-09-06 05:05:00,77.5,75.0,29.99,WSW,250,0.0,0.0,92,0.00,,,0.00,Wunderground v.1.15,2013-09-06 09:05:00,
2013-09-06 05:10:00,77.5,75.0,30.00,WSW,250,0.0,0.0,92,0.00,,,0.00,Wunderground v.1.15,2013-09-06 09:10:00,
2013-09-06 05:15:00,77.5,75.0,30.00,WSW,250,0.0,0.0,92,0.00,,,0.00,Wunderground v.1.15,2013-09-06 09:15:00,
2013-09-06 05:20:00,77.5,75.0,29.99,WSW,250,0.0,0.0,92,0.00,,,0.00,Wunderground v.1.15,2013-09-06 09:20:00,
2013-09-06 05:25:00,77.5,75.0,30.00,WSW,250,0.0,0.0,92,0.00,,,0.00,Wunderground v.1.15,2013-09-06 09:25:00,
2013-09-06 05:30:00,77.6,75.1,30.00,WSW,250,0.0,0.0,92,0.00,,,0.00,Wunderground v.1.15,2013-09-06 09:30:00,
2013-09-06 05:35:00,77.6,75.1,30.00,WSW,250,0.0,0.0,92,0.00,,,0.00,Wunderground v.1.15,2013-09-06 09:35:00,
2013-09-06 05:40:00,77.6,75.1,30.00,WSW,250,0.0,0.0,92,0.00,,,0.00,Wunderground v.1.15,2013-09-06 09:40:00,
2013-09-06 05:45:00,77.5,75.0,30.00,WSW,250,0.0,0.0,92,0.00,,,0.00,Wunderground v.1.15,2013-09-06 09:45:00,
2013-09-06 05:50:00,77.5,75.0,30.00,WSW,250,0.0,0.0,92,0.00,,,0.00,Wunderground v.1.15,2013-09-06 09:50:00,
2013-09-06 05:55:00,77.5,75.0,30.01,WSW,250,0.0,0.0,92,0.00,,,0.00,Wunderground v.1.15,2013-09-06 09:55:00,
2013-09-06 06:00:00,77.5,75.0,30.01,WSW,250,0.0,0.0,92,0.00,,,0.00,Wunderground v.1.15,2013-09-06 10:00:00,
2013-09-06 06:05:00,77.5,75.0,30.00,WSW,250,0.0,0.0,92,0.00,,,0.00,Wunderground v.1.15,2013-09-06 10:05:00,
2013-09-06 06:10:00,77.5,75.0,30.00,WSW,250,0.0,0.0,92,0.00,,,0.00,Wunderground v.1.15,2013-09-06 10:10:00,
2013-09-06 06:15:00,77.5,75.0,30.00,WSW,250,0.0,0.0,92,0.00,,,0.00,Wunderground v.1.15,2013-09-06 10:15:00,
2013-09-06 06:20:00,77.4,74.9,30.01,WSW,250,0.0,0.0,92,0.00,,,0.00,Wunderground v.1.15,2013-09-06 10:20:00,
2013-09-06 06:25:00,77.4,74.9,30.01,WSW,250,0.0,0.0,92,0.00,,,0.00,Wunderground v.1.15,2013-09-06 10:25:00,
2013-09-06 06:30:00,77.4,74.9,30.01,WSW,250,0.0,0.0,92,0.00,,,0.00,Wunderground v.1.15,2013-09-06 10:30:00,
2013-09-06 06:40:00,77.4,74.9,30.01,WSW,250,0.0,0.0,92,0.00,,,0.00,Wunderground v.1.15,2013-09-06 10:40:00,
2013-09-06 06:45:00,77.4,74.9,30.01,WSW,250,0.0,0.0,92,0.00,,,0.00,Wunderground v.1.15,2013-09-06 10:45:00,
2013-09-06 06:50:00,77.4,74.9,30.01,WSW,250,0.0,0.0,92,0.00,,,0.00,Wunderground v.1.15,2013-09-06 10:50:00,
2013-09-06 06:55:00,77.5,75.0,30.01,WSW,250,0.0,0.0,92,0.00,,,0.00,Wunderground v.1.15,2013-09-06 10:55:00,
2013-09-06 07:00:00,77.5,75.0,30.02,WSW,250,0.0,0.0,92,0.00,,,0.00,Wunderground v.1.15,2013-09-06 11:00:00,
2013-09-06 07:05:00,77.4,74.9,30.02,WSW,250,0.0,0.0,92,0.00,,,0.00,Wunderground v.1.15,2013-09-06 11:05:00,
2013-09-06 07:10:00,77.4,74.9,30.02,WSW,250,0.0,0.0,92,0.00,,,0.00,Wunderground v.1.15,2013-09-06 11:10:00,
2013-09-06 07:20:00,77.5,75.0,30.02,WSW,250,0.0,0.0,92,0.00,,,0.00,Wunderground v.1.15,2013-09-06 11:20:00,
2013-09-06 07:25:00,77.6,75.1,30.02,WSW,250,0.0,0.0,92,0.00,,,0.00,Wunderground v.1.15,2013-09-06 11:25:00,
2013-09-06 07:30:00,77.7,75.2,30.02,WSW,250,0.0,0.0,92,0.00,,,0.00,Wunderground v.1.15,2013-09-06 11:30:00,
2013-09-06 07:35:00,77.9,75.4,30.02,WSW,250,0.0,0.0,92,0.00,,,0.00,Wunderground v.1.15,2013-09-06 11:35:00,
2013-09-06 07:40:00,78.1,75.6,30.03,WSW,250,0.0,0.0,92,0.00,,,0.00,Wunderground v.1.15,2013-09-06 11:40:00,
2013-09-06 07:45:00,78.2,75.7,30.02,WSW,250,0.0,0.0,92,0.00,,,0.00,Wunderground v.1.15,2013-09-06 11:45:00,
2013-09-06 07:55:00,78.6,76.1,30.03,WSW,250,0.0,0.0,92,0.00,,,0.00,Wunderground v.1.15,2013-09-06 11:55:00,
2013-09-06 08:00:00,78.9,76.4,30.03,WSW,250,0.0,0.0,92,0.00,,,0.00,Wunderground v.1.15,2013-09-06 12:00:00,
2013-09-06 08:05:00,79.2,76.7,30.03,WSW,250,0.0,0.0,92,0.00,,,0.00,Wunderground v.1.15,2013-09-06 12:05:00,
2013-09-06 08:10:00,79.5,77.0,30.03,WSW,250,0.0,0.0,92,0.00,,,0.00,Wunderground v.1.15,2013-09-06 12:10:00,
2013-09-06 08:15:00,79.8,77.3,30.03,WSW,250,0.0,0.0,92,0.00,,,0.00,Wunderground v.1.15,2013-09-06 12:15:00,
2013-09-06 08:20:00,80.2,77.7,30.03,WSW,250,0.0,0.0,92,0.00,,,0.00,Wunderground v.1.15,2013-09-06 12:20:00,
2013-09-06 08:25:00,80.6,77.7,30.03,WSW,250,0.0,0.0,91,0.00,,,0.00,Wunderground v.1.15,2013-09-06 12:25:00,
2013-09-06 08:35:00,81.2,78.0,30.03,WSW,250,0.0,1.0,90,0.00,,,0.00,Wunderground v.1.15,2013-09-06 12:35:00,
2013-09-06 08:40:00,81.4,78.2,30.03,WSW,250,0.0,0.0,90,0.00,,,0.00,Wunderground v.1.15,2013-09-06 12:40:00,
2013-09-06 08:45:00,81.4,77.8,30.03,WSW,250,0.0,0.0,89,0.00,,,0.00,Wunderground v.1.15,2013-09-06 12:45:00,
2013-09-06 08:50:00,81.5,78.3,30.03,SE,127,0.0,0.0,90,0.00,,,0.00,Wunderground v.1.15,2013-09-06 12:50:00,
2013-09-06 08:55:00,81.4,77.8,30.03,SE,125,0.0,0.0,89,0.00,,,0.00,Wunderground v.1.15,2013-09-06 12:55:00,
2013-09-06 09:00:00,81.6,78.0,30.03,SE,125,0.0,0.0,89,0.00,,,0.00,Wunderground v.1.15,2013-09-06 13:00:00,
2013-09-06 09:05:00,81.8,78.2,30.03,SE,125,0.0,1.0,89,0.00,,,0.00,Wunderground v.1.15,2013-09-06 13:05:00,
2013-09-06 09:10:00,82.4,78.8,30.03,SE,125,0.0,0.0,89,0.00,,,0.00,Wunderground v.1.15,2013-09-06 13:10:00,
2013-09-06 09:15:00,83.0,79.1,30.03,SE,125,0.0,0.0,88,0.00,,,0.00,Wunderground v.1.15,2013-09-06 13:15:00,
2013-09-06 09:20:00,83.4,79.1,30.03,SE,126,0.0,0.0,87,0.00,,,0.00,Wunderground v.1.15,2013-09-06 13:20:00,
2013-09-06 09:25:00,83.7,79.1,30.03,SE,126,0.0,0.0,86,0.00,,,0.00,Wunderground v.1.15,2013-09-06 13:25:00,
2013-09-06 09:30:00,83.9,78.9,30.03,SE,133,0.0,0.0,85,0.00,,,0.00,Wunderground v.1.15,2013-09-06 13:30:00,
2013-09-06 09:35:00,84.0,79.0,30.03,SE,140,1.0,1.0,85,0.00,,,0.00,Wunderground v.1.15,2013-09-06 13:35:00,
2013-09-06 09:40:00,84.1,78.4,30.03,SE,125,1.0,1.0,83,0.00,,,0.00,Wunderground v.1.15,2013-09-06 13:40:00,
2013-09-06 09:45:00,84.4,78.7,30.03,SE,125,0.0,1.0,83,0.00,,,0.00,Wunderground v.1.15,2013-09-06 13:45:00,
2013-09-06 09:50:00,84.7,78.6,30.03,SSE,161,0.0,0.0,82,0.00,,,0.00,Wunderground v.1.15,2013-09-06 13:50:00,
2013-09-06 09:55:00,85.1,78.6,30.03,SSE,159,0.0,0.0,81,0.00,,,0.00,Wunderground v.1.15,2013-09-06 13:55:00,
2013-09-06 10:00:00,85.9,78.6,30.03,SSE,159,0.0,0.0,79,0.00,,,0.00,Wunderground v.1.15,2013-09-06 14:00:00,
2013-09-06 10:05:00,86.5,78.8,30.03,SSE,159,0.0,0.0,78,0.00,,,0.00,Wunderground v.1.15,2013-09-06 14:05:00,
2013-09-06 10:10:00,87.1,79.0,30.03,SSE,159,0.0,0.0,77,0.00,,,0.00,Wunderground v.1.15,2013-09-06 14:10:00,
2013-09-06 10:15:00,87.5,79.0,30.04,SSE,155,0.0,0.0,76,0.00,,,0.00,Wunderground v.1.15,2013-09-06 14:15:00,
2013-09-06 10:20:00,87.7,78.8,30.04,SSE,155,0.0,0.0,75,0.00,,,0.00,Wunderground v.1.15,2013-09-06 14:20:00,
2013-09-06 10:25:00,87.9,79.0,30.04,SSE,155,0.0,0.0,75,0.00,,,0.00,Wunderground v.1.15,2013-09-06 14:25:00,
2013-09-06 10:30:00,87.9,79.0,30.04,SSE,155,0.0,1.0,75,0.00,,,0.00,Wunderground v.1.15,2013-09-06 14:30:00,
2013-09-06 10:35:00,88.1,78.8,30.05,SSE,155,0.0,1.0,74,0.00,,,0.00,Wunderground v.1.15,2013-09-06 14:35:00,
2013-09-06 10:40:00,88.3,78.5,30.04,SSE,155,0.0,0.0,73,0.00,,,0.00,Wunderground v.1.15,2013-09-06 14:40:00,
2013-09-06 10:45:00,88.4,78.2,30.04,SSE,155,0.0,0.0,72,0.00,,,0.00,Wunderground v.1.15,2013-09-06 14:45:00,
2013-09-06 10:50:00,88.9,78.7,30.04,SSE,155,0.0,0.0,72,0.00,,,0.00,Wunderground v.1.15,2013-09-06 14:50:00,
2013-09-06 10:55:00,89.2,77.7,30.04,SSE,154,0.0,0.0,69,0.00,,,0.00,Wunderground v.1.15,2013-09-06 14:55:00,
2013-09-06 11:00:00,89.2,77.7,30.04,SSE,154,0.0,1.0,69,0.00,,,0.00,Wunderground v.1.15,2013-09-06 15:00:00,
2013-09-06 11:05:00,89.1,77.6,30.04,SSE,154,0.0,1.0,69,0.00,,,0.00,Wunderground v.1.15,2013-09-06 15:05:00,
2013-09-06 11:10:00,89.3,76.4,30.04,SSE,154,0.0,0.0,66,0.00,,,0.00,Wunderground v.1.15,2013-09-06 15:10:00,
2013-09-06 11:15:00,89.7,77.7,30.04,SSE,154,0.0,1.0,68,0.00,,,0.00,Wunderground v.1.15,2013-09-06 15:15:00,
2013-09-06 11:20:00,89.7,76.4,30.04,SSE,148,0.0,0.0,65,0.00,,,0.00,Wunderground v.1.15,2013-09-06 15:20:00,
2013-09-06 11:25:00,90.0,77.6,30.04,SSE,148,0.0,0.0,67,0.00,,,0.00,Wunderground v.1.15,2013-09-06 15:25:00,
2013-09-06 11:30:00,90.4,76.6,30.04,SSE,148,0.0,0.0,64,0.00,,,0.00,Wunderground v.1.15,2013-09-06 15:30:00,
2013-09-06 11:35:00,90.4,75.1,30.04,SSE,147,0.0,0.0,61,0.00,,,0.00,Wunderground v.1.15,2013-09-06 15:35:00,
2013-09-06 11:40:00,90.6,76.7,30.03,SE,146,0.0,0.0,64,0.00,,,0.00,Wunderground v.1.15,2013-09-06 15:40:00,
2013-09-06 11:45:00,90.5,76.2,30.03,SE,144,0.0,0.0,63,0.00,,,0.00,Wunderground v.1.15,2013-09-06 15:45:00,
2013-09-06 11:55:00,90.4,76.1,30.03,ESE,119,0.0,2.0,63,0.00,,,0.00,Wunderground v.1.15,2013-09-06 15:55:00,
2013-09-06 12:05:00,90.3,76.9,30.04,ESE,119,0.0,0.0,65,0.00,,,0.00,Wunderground v.1.15,2013-09-06 16:05:00,
2013-09-06 12:10:00,90.0,76.6,30.03,SE,138,1.0,1.0,65,0.00,,,0.00,Wunderground v.1.15,2013-09-06 16:10:00,
2013-09-06 12:15:00,89.5,76.6,30.03,SE,138,1.0,1.0,66,0.00,,,0.00,Wunderground v.1.15,2013-09-06 16:15:00,
2013-09-06 12:20:00,89.4,76.5,30.03,SE,136,1.0,1.0,66,0.00,,,0.00,Wunderground v.1.15,2013-09-06 16:20:00,
2013-09-06 12:25:00,89.4,77.0,30.03,SE,136,0.0,1.0,67,0.00,,,0.00,Wunderground v.1.15,2013-09-06 16:25:00,
2013-09-06 12:30:00,89.2,76.8,30.03,SE,136,0.0,0.0,67,0.00,,,0.00,Wunderground v.1.15,2013-09-06 16:30:00,
2013-09-06 12:35:00,89.2,77.3,30.03,SE,136,0.0,1.0,68,0.00,,,0.00,Wunderground v.1.15,2013-09-06 16:35:00,
2013-09-06 12:40:00,89.6,77.2,30.03,SE,128,0.0,3.0,67,0.00,,,0.00,Wunderground v.1.15,2013-09-06 16:40:00,
2013-09-06 12:45:00,90.1,77.7,30.03,ESE,115,0.0,3.0,67,0.00,,,0.00,Wunderground v.1.15,2013-09-06 16:45:00,
2013-09-06 12:50:00,90.4,77.9,30.03,ESE,115,0.0,0.0,67,0.00,,,0.00,Wunderground v.1.15,2013-09-06 16:50:00,
2013-09-06 12:55:00,90.7,77.3,30.03,NE,48,0.0,0.0,65,0.00,,,0.00,Wunderground v.1.15,2013-09-06 16:55:00,
2013-09-06 13:00:00,91.0,77.6,30.03,NE,48,0.0,0.0,65,0.00,,,0.00,Wunderground v.1.15,2013-09-06 17:00:00,
2013-09-06 13:05:00,91.0,78.5,30.03,SW,230,1.0,1.0,67,0.00,,,0.00,Wunderground v.1.15,2013-09-06 17:05:00,
2013-09-06 13:10:00,90.0,78.9,30.03,SW,235,2.0,3.0,70,0.00,,,0.00,Wunderground v.1.15,2013-09-06 17:10:00,
2013-09-06 13:15:00,88.9,78.7,30.03,WSW,252,2.0,3.0,72,0.00,,,0.00,Wunderground v.1.15,2013-09-06 17:15:00,
2013-09-06 13:20:00,88.3,78.5,30.03,WSW,242,2.0,6.0,73,0.00,,,0.00,Wunderground v.1.15,2013-09-06 17:20:00,
2013-09-06 13:25:00,87.9,78.6,30.02,WSW,254,3.0,6.0,74,0.00,,,0.00,Wunderground v.1.15,2013-09-06 17:25:00,
2013-09-06 13:30:00,87.8,78.5,30.02,South,188,3.0,3.0,74,0.00,,,0.00,Wunderground v.1.15,2013-09-06 17:30:00,
2013-09-06 13:35:00,87.3,78.4,30.02,SW,229,3.0,5.0,75,0.00,,,0.00,Wunderground v.1.15,2013-09-06 17:35:00,
2013-09-06 13:40:00,87.2,78.3,30.02,West,259,3.0,3.0,75,0.00,,,0.00,Wunderground v.1.15,2013-09-06 17:40:00,
2013-09-06 13:45:00,88.1,78.8,30.02,WSW,247,2.0,3.0,74,0.00,,,0.00,Wunderground v.1.15,2013-09-06 17:45:00,
2013-09-06 13:50:00,88.5,78.7,30.01,West,275,2.0,2.0,73,0.00,,,0.00,Wunderground v.1.15,2013-09-06 17:50:00,
2013-09-06 13:55:00,88.9,78.7,30.00,WSW,246,2.0,5.0,72,0.00,,,0.00,Wunderground v.1.15,2013-09-06 17:55:00,
2013-09-06 14:00:00,88.6,79.2,30.00,West,269,3.0,3.0,74,0.00,,,0.00,Wunderground v.1.15,2013-09-06 18:00:00,
2013-09-06 14:05:00,89.0,79.2,30.00,SW,236,2.0,3.0,73,0.00,,,0.00,Wunderground v.1.15,2013-09-06 18:05:00,
2013-09-06 14:10:00,89.7,79.0,30.00,WSW,256,1.0,1.0,71,0.00,,,0.00,Wunderground v.1.15,2013-09-06 18:10:00,
2013-09-06 14:15:00,89.9,79.2,29.99,WSW,240,2.0,2.0,71,0.00,,,0.00,Wunderground v.1.15,2013-09-06 18:15:00,
2013-09-06 14:20:00,89.5,78.8,29.99,WSW,249,3.0,4.0,71,0.00,,,0.00,Wunderground v.1.15,2013-09-06 18:20:00,
2013-09-06 14:25:00,89.1,78.5,29.99,WSW,253,3.0,4.0,71,0.00,,,0.00,Wunderground v.1.15,2013-09-06 18:25:00,
2013-09-06 14:30:00,89.5,78.8,29.99,SW,219,3.0,3.0,71,0.00,,,0.00,Wunderground v.1.15,2013-09-06 18:30:00,
2013-09-06 14:35:00,90.0,78.9,29.98,WSW,247,2.0,4.0,70,0.00,,,0.00,Wunderground v.1.15,2013-09-06 18:35:00,
2013-09-06 14:40:00,89.8,78.3,29.98,WSW,239,4.0,4.0,69,0.00,,,0.00,Wunderground v.1.15,2013-09-06 18:40:00,
2013-09-06 14:45:00,89.9,79.2,29.97,SW,236,3.0,4.0,71,0.00,,,0.00,Wunderground v.1.15,2013-09-06 18:45:00,
2013-09-06 14:50:00,90.6,79.5,29.97,WSW,254,2.0,2.0,70,0.00,,,0.00,Wunderground v.1.15,2013-09-06 18:50:00,
2013-09-06 14:55:00,90.6,79.0,29.97,WSW,257,2.0,2.0,69,0.00,,,0.00,Wunderground v.1.15,2013-09-06 18:55:00,
2013-09-06 15:00:00,90.7,79.6,29.96,WSW,238,2.0,2.0,70,0.00,,,0.00,Wunderground v.1.15,2013-09-06 19:00:00,
2013-09-06 15:05:00,91.2,79.2,29.97,WSW,248,1.0,3.0,68,0.00,,,0.00,Wunderground v.1.15,2013-09-06 19:05:00,
2013-09-06 15:10:00,90.6,78.6,29.96,WSW,238,3.0,4.0,68,0.00,,,0.00,Wunderground v.1.15,2013-09-06 19:10:00,
2013-09-06 15:15:00,90.1,79.0,29.96,WNW,283,4.0,4.0,70,0.00,,,0.00,Wunderground v.1.15,2013-09-06 19:15:00,
2013-09-06 15:20:00,90.3,78.7,29.95,West,274,2.0,2.0,69,0.00,,,0.00,Wunderground v.1.15,2013-09-06 19:20:00,
2013-09-06 15:25:00,90.4,78.8,29.95,WSW,248,3.0,6.0,69,0.00,,,0.00,Wunderground v.1.15,2013-09-06 19:25:00,
2013-09-06 15:30:00,90.3,79.6,29.95,WSW,257,4.0,4.0,71,0.00,,,0.00,Wunderground v.1.15,2013-09-06 19:30:00,
2013-09-06 15:35:00,90.7,79.1,29.94,WSW,238,3.0,4.0,69,0.00,,,0.00,Wunderground v.1.15,2013-09-06 19:35:00,
2013-09-06 15:40:00,90.2,78.6,29.94,WSW,243,3.0,3.0,69,0.00,,,0.00,Wunderground v.1.15,2013-09-06 19:40:00,
2013-09-06 15:45:00,90.7,79.1,29.94,WSW,249,3.0,3.0,69,0.00,,,0.00,Wunderground v.1.15,2013-09-06 19:45:00,
2013-09-06 15:50:00,91.1,79.5,29.94,West,280,2.0,2.0,69,0.00,,,0.00,Wunderground v.1.15,2013-09-06 19:50:00,
2013-09-06 15:55:00,91.1,79.1,29.94,WSW,251,2.0,5.0,68,0.00,,,0.00,Wunderground v.1.15,2013-09-06 19:55:00,
2013-09-06 16:00:00,90.9,79.3,29.94,SSW,211,3.0,7.0,69,0.00,,,0.00,Wunderground v.1.15,2013-09-06 20:00:00,
2013-09-06 16:05:00,90.5,78.5,29.93,West,271,4.0,7.0,68,0.00,,,0.00,Wunderground v.1.15,2013-09-06 20:05:00,
2013-09-06 16:10:00,90.4,78.8,29.93,WNW,292,4.0,4.0,69,0.00,,,0.00,Wunderground v.1.15,2013-09-06 20:10:00,
2013-09-06 16:15:00,90.4,78.4,29.92,WSW,249,3.0,4.0,68,0.00,,,0.00,Wunderground v.1.15,2013-09-06 20:15:00,
2013-09-06 16:20:00,89.9,78.8,29.93,WSW,252,3.0,3.0,70,0.00,,,0.00,Wunderground v.1.15,2013-09-06 20:20:00,
2013-09-06 16:25:00,90.4,78.8,29.92,WSW,256,3.0,3.0,69,0.00,,,0.00,Wunderground v.1.15,2013-09-06 20:25:00,
2013-09-06 16:30:00,90.2,78.6,29.92,SW,236,3.0,5.0,69,0.00,,,0.00,Wunderground v.1.15,2013-09-06 20:30:00,
2013-09-06 16:35:00,90.1,78.6,29.93,NW,316,4.0,5.0,69,0.00,,,0.00,Wunderground v.1.15,2013-09-06 20:35:00,
2013-09-06 16:40:00,90.2,78.6,29.93,WSW,256,3.0,5.0,69,0.00,,,0.00,Wunderground v.1.15,2013-09-06 20:40:00,
2013-09-06 16:45:00,90.2,78.6,29.93,WSW,258,3.0,5.0,69,0.00,,,0.00,Wunderground v.1.15,2013-09-06 20:45:00,
2013-09-06 16:50:00,90.4,78.4,29.93,WNW,287,2.0,2.0,68,0.00,,,0.00,Wunderground v.1.15,2013-09-06 20:50:00,
2013-09-06 16:55:00,90.8,78.8,29.93,WNW,288,1.0,2.0,68,0.00,,,0.00,Wunderground v.1.15,2013-09-06 20:55:00,
2013-09-06 17:00:00,91.2,78.2,29.93,NW,305,1.0,1.0,66,0.00,,,0.00,Wunderground v.1.15,2013-09-06 21:00:00,
2013-09-06 17:05:00,90.9,78.0,29.93,WNW,288,1.0,1.0,66,0.00,,,0.00,Wunderground v.1.15,2013-09-06 21:05:00,
2013-09-06 17:15:00,90.3,78.3,29.93,West,263,0.0,1.0,68,0.00,,,0.00,Wunderground v.1.15,2013-09-06 21:15:00,
2013-09-06 17:20:00,90.1,78.6,29.93,West,266,0.0,0.0,69,0.00,,,0.00,Wunderground v.1.15,2013-09-06 21:20:00,
2013-09-06 17:25:00,89.8,78.7,29.93,West,271,0.0,0.0,70,0.00,,,0.00,Wunderground v.1.15,2013-09-06 21:25:00,
2013-09-06 17:30:00,90.1,79.0,29.93,West,276,1.0,1.0,70,0.00,,,0.00,Wunderground v.1.15,2013-09-06 21:30:00,
2013-09-06 17:35:00,90.3,78.7,29.94,NW,306,1.0,1.0,69,0.00,,,0.00,Wunderground v.1.15,2013-09-06 21:35:00,
2013-09-06 17:40:00,90.1,79.0,29.94,West,279,1.0,1.0,70,0.00,,,0.00,Wunderground v.1.15,2013-09-06 21:40:00,
2013-09-06 17:45:00,89.8,79.1,29.94,WNW,291,0.0,1.0,71,0.00,,,0.00,Wunderground v.1.15,2013-09-06 21:45:00,
2013-09-06 17:50:00,89.6,79.4,29.94,NW,325,0.0,1.0,72,0.00,,,0.00,Wunderground v.1.15,2013-09-06 21:50:00,
2013-09-06 18:00:00,89.3,79.5,29.93,WNW,289,1.0,10.0,73,0.00,,,0.00,Wunderground v.1.15,2013-09-06 22:00:00,
2013-09-06 18:05:00,89.2,79.4,29.94,NW,310,1.0,10.0,73,0.00,,,0.00,Wunderground v.1.15,2013-09-06 22:05:00,
2013-09-06 18:10:00,89.4,80.0,29.94,NW,310,1.0,1.0,74,0.00,,,0.00,Wunderground v.1.15,2013-09-06 22:10:00,
2013-09-06 18:15:00,89.5,79.7,29.94,NW,315,0.0,2.0,73,0.00,,,0.00,Wunderground v.1.15,2013-09-06 22:15:00,
2013-09-06 18:25:00,88.2,76.7,29.95,North,11,2.0,4.0,69,0.00,,,0.00,Wunderground v.1.15,2013-09-06 22:25:00,
2013-09-06 18:30:00,84.6,73.3,29.96,NNE,22,4.0,4.0,69,0.00,,,0.00,Wunderground v.1.15,2013-09-06 22:30:00,
2013-09-06 18:35:00,82.4,73.3,29.97,North,355,4.0,4.0,74,0.00,,,0.00,Wunderground v.1.15,2013-09-06 22:35:00,
2013-09-06 18:40:00,81.1,72.8,29.97,NNE,22,3.0,3.0,76,0.00,,,0.00,Wunderground v.1.15,2013-09-06 22:40:00,
2013-09-06 18:50:00,79.7,72.2,30.00,ENE,59,3.0,3.0,78,0.00,,,0.00,Wunderground v.1.15,2013-09-06 22:50:00,
2013-09-06 18:55:00,79.4,72.3,30.01,NE,36,3.0,3.0,79,0.00,,,0.00,Wunderground v.1.15,2013-09-06 22:55:00,
2013-09-06 19:00:00,78.4,72.4,30.01,ESE,114,3.0,3.0,82,0.00,,,0.00,Wunderground v.1.15,2013-09-06 23:00:00,
2013-09-06 19:05:00,77.6,72.4,30.01,ESE,103,2.0,3.0,84,0.00,,,0.00,Wunderground v.1.15,2013-09-06 23:05:00,
2013-09-06 19:10:00,77.3,72.8,30.02,ESE,102,1.0,1.0,86,0.00,,,0.00,Wunderground v.1.15,2013-09-06 23:10:00,
2013-09-06 19:15:00,77.0,72.8,30.02,ESE,109,0.0,1.0,87,0.00,,,0.01,Wunderground v.1.15,2013-09-06 23:15:00,
2013-09-06 19:20:00,76.5,72.7,30.02,ENE,64,0.0,2.0,88,0.00,,,0.01,Wunderground v.1.15,2013-09-06 23:20:00,
2013-09-06 19:25:00,76.0,72.2,30.01,NE,55,0.0,2.0,88,0.10,,,0.02,Wunderground v.1.15,2013-09-06 23:25:00,
2013-09-06 19:30:00,75.7,72.2,30.02,NE,53,0.0,0.0,89,0.07,,,0.02,Wunderground v.1.15,2013-09-06 23:30:00,
2013-09-06 19:35:00,75.6,72.5,30.02,NE,53,0.0,0.0,90,0.04,,,0.02,Wunderground v.1.15,2013-09-06 23:35:00,
2013-09-06 19:45:00,75.6,72.5,30.02,NE,53,0.0,0.0,90,0.16,,,0.04,Wunderground v.1.15,2013-09-06 23:45:00,
2013-09-06 19:50:00,75.5,72.4,30.02,ESE,121,0.0,0.0,90,0.11,,,0.04,Wunderground v.1.15,2013-09-06 23:50:00,
2013-09-06 19:55:00,75.3,72.2,30.02,ESE,119,0.0,0.0,90,0.08,,,0.05,Wunderground v.1.15,2013-09-06 23:55:00,
2013-09-06 20:00:00,75.4,72.6,30.02,ESE,119,0.0,0.0,91,0.07,,,0.05,Wunderground v.1.15,2013-09-07 00:00:00,
2013-09-06 20:05:00,75.3,72.5,30.01,ESE,116,0.0,0.0,91,0.05,,,0.05,Wunderground v.1.15,2013-09-07 00:05:00,
2013-09-06 20:10:00,75.1,72.3,30.01,ESE,113,0.0,0.0,91,0.00,,,0.05,Wunderground v.1.15,2013-09-07 00:10:00,
2013-09-06 20:15:00,75.0,72.2,30.01,ESE,113,0.0,0.0,91,0.00,,,0.06,Wunderground v.1.15,2013-09-07 00:15:00,
2013-09-06 20:20:00,74.9,72.1,30.01,East,94,0.0,0.0,91,0.00,,,0.06,Wunderground v.1.15,2013-09-07 00:20:00,
2013-09-06 20:25:00,74.7,71.9,30.01,East,88,0.0,0.0,91,0.00,,,0.06,Wunderground v.1.15,2013-09-07 00:25:00,
2013-09-06 20:30:00,74.6,71.8,30.00,East,86,0.0,0.0,91,0.00,,,0.06,Wunderground v.1.15,2013-09-07 00:30:00,
2013-09-06 20:35:00,74.6,71.8,30.00,East,86,0.0,0.0,91,0.00,,,0.06,Wunderground v.1.15,2013-09-07 00:35:00,
2013-09-06 20:40:00,74.6,71.8,29.99,East,82,0.0,1.0,91,0.00,,,0.06,Wunderground v.1.15,2013-09-07 00:40:00,
2013-09-06 20:45:00,74.7,71.9,29.99,East,80,0.0,1.0,91,0.00,,,0.06,Wunderground v.1.15,2013-09-07 00:45:00,
2013-09-06 20:50:00,74.8,72.0,29.99,East,80,0.0,0.0,91,0.00,,,0.06,Wunderground v.1.15,2013-09-07 00:50:00,
2013-09-06 20:55:00,74.8,72.0,30.00,East,81,0.0,0.0,91,0.00,,,0.06,Wunderground v.1.15,2013-09-07 00:55:00,
2013-09-06 21:00:00,74.8,72.0,30.00,East,80,0.0,0.0,91,0.00,,,0.06,Wunderground v.1.15,2013-09-07 01:00:00,
2013-09-06 21:10:00,74.8,72.0,29.99,East,80,0.0,0.0,91,0.00,,,0.06,Wunderground v.1.15,2013-09-07 01:10:00,
2013-09-06 21:15:00,74.8,72.0,29.99,East,80,0.0,0.0,91,0.00,,,0.06,Wunderground v.1.15,2013-09-07 01:15:00,
2013-09-06 21:20:00,74.8,72.0,29.99,East,80,0.0,0.0,91,0.00,,,0.06,Wunderground v.1.15,2013-09-07 01:20:00,
2013-09-06 21:25:00,74.8,72.0,30.00,East,80,0.0,0.0,91,0.00,,,0.06,Wunderground v.1.15,2013-09-07 01:25:00,
2013-09-06 21:30:00,74.7,71.6,30.00,East,80,0.0,0.0,90,0.00,,,0.06,Wunderground v.1.15,2013-09-07 01:30:00,
2013-09-06 21:35:00,74.8,71.7,30.00,East,81,0.0,0.0,90,0.00,,,0.06,Wunderground v.1.15,2013-09-07 01:35:00,
2013-09-06 21:40:00,74.8,71.7,29.99,East,80,0.0,0.0,90,0.00,,,0.06,Wunderground v.1.15,2013-09-07 01:40:00,
2013-09-06 21:45:00,74.8,71.7,29.99,East,80,0.0,0.0,90,0.00,,,0.06,Wunderground v.1.15,2013-09-07 01:45:00,
2013-09-06 21:55:00,75.0,71.9,29.99,East,80,0.0,0.0,90,0.00,,,0.06,Wunderground v.1.15,2013-09-07 01:55:00,
2013-09-06 22:00:00,75.0,71.9,29.99,East,80,0.0,0.0,90,0.00,,,0.06,Wunderground v.1.15,2013-09-07 02:00:00,
2013-09-06 22:05:00,74.9,71.8,29.99,East,80,0.0,0.0,90,0.00,,,0.06,Wunderground v.1.15,2013-09-07 02:05:00,
2013-09-06 22:10:00,74.9,71.8,29.99,East,80,0.0,1.0,90,0.00,,,0.06,Wunderground v.1.15,2013-09-07 02:10:00,
2013-09-06 22:15:00,74.8,71.7,29.99,East,79,0.0,1.0,90,0.00,,,0.06,Wunderground v.1.15,2013-09-07 02:15:00,
2013-09-06 22:20:00,74.7,71.6,29.99,East,79,0.0,0.0,90,0.00,,,0.06,Wunderground v.1.15,2013-09-07 02:20:00,
2013-09-06 22:25:00,74.7,71.6,30.00,East,79,0.0,0.0,90,0.00,,,0.06,Wunderground v.1.15,2013-09-07 02:25:00,
2013-09-06 22:30:00,74.7,71.6,30.00,East,80,0.0,0.0,90,0.00,,,0.06,Wunderground v.1.15,2013-09-07 02:30:00,
2013-09-06 22:35:00,74.6,71.5,30.00,East,79,0.0,0.0,90,0.00,,,0.06,Wunderground v.1.15,2013-09-07 02:35:00,
2013-09-06 22:45:00,74.5,71.4,29.99,East,79,0.0,0.0,90,0.00,,,0.06,Wunderground v.1.15,2013-09-07 02:45:00,
2013-09-06 22:50:00,74.5,71.4,29.99,East,79,0.0,0.0,90,0.00,,,0.06,Wunderground v.1.15,2013-09-07 02:50:00,
2013-09-06 22:55:00,74.5,71.4,29.99,East,79,0.0,0.0,90,0.00,,,0.06,Wunderground v.1.15,2013-09-07 02:55:00,
2013-09-06 23:00:00,74.6,71.5,29.99,East,79,0.0,0.0,90,0.00,,,0.06,Wunderground v.1.15,2013-09-07 03:00:00,
2013-09-06 23:05:00,74.6,71.5,29.99,East,80,0.0,0.0,90,0.00,,,0.06,Wunderground v.1.15,2013-09-07 03:05:00,
2013-09-06 23:10:00,74.6,71.5,29.98,East,79,0.0,0.0,90,0.00,,,0.06,Wunderground v.1.15,2013-09-07 03:10:00,
2013-09-06 23:15:00,74.8,72.0,29.98,East,80,0.0,1.0,91,0.00,,,0.06,Wunderground v.1.15,2013-09-07 03:15:00,
2013-09-06 23:20:00,74.7,71.6,29.97,East,80,0.0,0.0,90,0.00,,,0.06,Wunderground v.1.15,2013-09-07 03:20:00,
2013-09-06 23:25:00,74.7,71.6,29.98,ESE,104,0.0,0.0,90,0.00,,,0.06,Wunderground v.1.15,2013-09-07 03:25:00,
2013-09-06 23:35:00,74.5,71.7,29.97,ESE,104,0.0,0.0,91,0.00,,,0.06,Wunderground v.1.15,2013-09-07 03:35:00,
2013-09-06 23:40:00,74.5,71.7,29.97,ESE,104,0.0,0.0,91,0.00,,,0.06,Wunderground v.1.15,2013-09-07 03:40:00,
2013-09-06 23:45:00,74.4,71.6,29.97,ESE,104,0.0,0.0,91,0.00,,,0.06,Wunderground v.1.15,2013-09-07 03:45:00,
2013-09-06 23:50:00,74.5,71.7,29.97,ESE,104,0.0,0.0,91,0.00,,,0.06,Wunderground v.1.15,2013-09-07 03:50:00,
2013-09-06 23:55:00,74.4,71.6,29.97,ESE,104,0.0,0.0,91,0.00,,,0.06,Wunderground v.1.15,2013-09-07 03:55:00,